[[{"header":{"parameterUnit":"m.s-1","parameterCategory":2,"la1":30.2991,"la2":30.254,"lo1":-89.0895,"lo2":-89.0444,"dy":0.0017,"dx":0.0017,"nx":28,"ny":28,"refTime":"2023-07-30T21:00:00:Z","depth":"0","parameterNumber":2,"parameterNumberName":"U-component_of_CURRENTS"},"data":[0,0,0,0,0,0,0,0,0,0,0,0,0,0,0,0,0,0,0,0,0,0,0,0,0,0,0,0,0,0,0,0,0,0,0,0,0,0,0,0,0,0,0,0,0,0,0,0,0,0,0,0,0,0,0,0,0,0,0.1668,0.1668,0,0.1671,0.1671,0.1672,0.1687,0.1687,0.1687,0.1688,0.1716,0.1717,0.1717,0,0,0,0,0,0,0,0,0,0,0,0,0,0.1694,0.1693,0.1668,0.1668,0.1668,0.1671,0.1671,0.1672,0.1687,0.1687,0.1688,0.1688,0.1716,0.1717,0.1717,0,0,0,0,0,0,0,0,0,0,0,0,0,0.1689,0.1693,0.1668,0.1675,0.1676,0.1671,0.1671,0.1672,0.1687,0.1687,0.1688,0.1688,0.1716,0.1717,0.1717,0.1715,0,0,0.172,0.172,0,0,0,0,0,0,0,0,0.169,0.1689,0.1674,0.1675,0.1675,0.1678,0.1691,0.1687,0.1687,0.1684,0.1688,0.1688,0.1705,0.1706,0.1708,0.1716,0.1717,0.172,0.172,0.1721,0.1721,0,0,0,0,0,0,0,0.169,0.1689,0.1671,0.1674,0.1675,0.1684,0.1684,0.169,0.1694,0.1684,0.1685,0.1683,0.1705,0.1707,0.1708,0.1718,0.172,0.172,0.1721,0.1721,0.1772,0.1773,0,0,0,0,0,0,0.1686,0.1689,0.1671,0.1671,0.1682,0.1683,0.1683,0.1678,0.1693,0.1695,0.1683,0.1684,0.1705,0.1707,0.1709,0.1754,0.1721,0.1721,0.1722,0.1771,0.1772,0.1773,0,0,0,0,0,0,0.1686,0.1684,0.167,0.1679,0.1678,0.1682,0.1676,0.1678,0.1682,0.1691,0.1694,0.1686,0.1706,0.1708,0.1723,0.1753,0.1722,0.1722,0.177,0.1772,0.1773,0.1812,0,0,0,0,0,0,0.1687,0.1684,0.1683,0.1679,0.1677,0.1674,0.1676,0.1677,0.168,0.1681,0.1695,0.1698,0.1706,0.1722,0.1724,0.1754,0.1723,0.1769,0.1771,0.1772,0.181,0.1815,0.1819,0,0,0,0,0,0.1688,0.1686,0.1683,0.1681,0.1675,0.1674,0.1675,0.168,0.1679,0.1685,0.1695,0.1698,0.1734,0.1722,0.1725,0.1756,0.1768,0.177,0.1772,0.1808,0.1814,0.1819,0,0,0,0,0,0,0.1701,0.1687,0.1684,0.1679,0.1679,0.1677,0.1681,0.168,0.169,0.1695,0.1701,0.1705,0.1738,0.1733,0.172,0.1775,0.1755,0.1757,0.1781,0.1787,0.1791,0.178,0.1724,0,0,0,0,0,0.1701,0.1693,0.1686,0.1683,0.1683,0.1681,0.1682,0.1685,0.169,0.1694,0.1701,0.1716,0.1747,0.1753,0.1774,0.179,0.1775,0.1813,0.1818,0.1822,0.1814,0.1851,0.1859,0.178,0.178,0.178,0,0,0.1704,0.1696,0.1691,0.1684,0.1684,0.1687,0.1683,0.1687,0.1695,0.1696,0.171,0.1734,0.1756,0.179,0.1803,0.1787,0.1826,0.1824,0.1828,0.1818,0.1854,0.1862,0.1869,0.1781,0.1781,0.1781,0,0,0.1706,0.17,0.1695,0.1695,0.1694,0.1695,0.1696,0.1695,0.1704,0.1715,0.1736,0.1767,0.1787,0.1818,0.1836,0.1871,0.1857,0.1885,0.1892,0.1929,0.1935,0.1941,0.1885,0.1886,0.1879,0.1879,0.1879,0,0.1715,0.1699,0.1696,0.1696,0.1695,0.1698,0.1699,0.1711,0.1716,0.1727,0.1724,0.1782,0.1802,0.1857,0.1877,0.1883,0.1871,0.1871,0.1935,0.1941,0.1946,0.1888,0.1889,0.1881,0.1881,0.1881,0.1881,0,0.1706,0.1703,0.1702,0.1699,0.1705,0.1705,0.1718,0.173,0.1736,0.1746,0.1792,0.182,0.1851,0.1877,0.1889,0.1948,0.1913,0.1945,0.1921,0.1957,0.1892,0.1892,0.1884,0.1883,0.1883,0.1882,0,0,0.1701,0.1696,0.1696,0.1696,0.1704,0.1707,0.1731,0.1748,0.1765,0.1786,0.1811,0.1872,0.1885,0.1906,0.1934,0.1965,0.1986,0.1971,0.1972,0.1911,0.2004,0.1794,0.1772,0.2044,0.2045,0.2046,0.1926,0,0.1694,0.1688,0.169,0.1695,0.1694,0.1712,0.1736,0.1761,0.1778,0.1806,0.1849,0.1885,0.1899,0.1921,0.196,0.2003,0.1995,0.201,0.198,0.1977,0.1786,0.177,0.1732,0.1608,0.1925,0.1925,0.1925,0,0.1682,0.1677,0.1675,0.1692,0.1695,0.1706,0.1737,0.1759,0.1809,0.1826,0.1864,0.1891,0.1943,0.1952,0.1997,0.2011,0.1997,0.2008,0.2005,0.1796,0.1767,0.1633,0.1595,0.1622,0.1924,0.1924,0.1924,0,0.1669,0.1671,0.1665,0.1668,0.1689,0.1701,0.1719,0.1762,0.1789,0.1832,0.1848,0.1908,0.1926,0.1966,0.1942,0.1996,0.1952,0.2032,0.1804,0.1787,0.1736,0.1711,0.1719,0.2033,0.2033,0.2033,0.2033,0,0.1658,0.1658,0.1657,0.1654,0.1668,0.169,0.1716,0.1744,0.1792,0.183,0.1854,0.1876,0.194,0.1913,0.1925,0.1809,0.1923,0.1773,0.1748,0.1738,0.1715,0.172,0.1727,0.2029,0.203,0.203,0.2031,0,0.1654,0.1652,0.1644,0.1651,0.166,0.167,0.1713,0.174,0.1771,0.182,0.1832,0.1854,0.1805,0.1772,0.1787,0.1734,0.162,0.1599,0.1512,0.1477,0.1307,0.1315,0.1128,0.1104,0.1372,0.1366,0.1361,0,0.1653,0.1643,0.1634,0.164,0.1642,0.1663,0.1692,0.1732,0.1759,0.1805,0.1828,0.1765,0.1705,0.1544,0.1453,0.1325,0.1369,0.1183,0.1283,0.1246,0.1243,0.1212,0.1209,0.1229,0.1223,0.1218,0.1215,0,0.1647,0.1637,0.1629,0.1626,0.1642,0.1665,0.1698,0.1713,0.177,0.1776,0.1756,0.1698,0.151,0.1344,0.1101,0.1046,0.1134,0.1078,0.1133,0.1168,0.1051,0.1034,0.1299,0.1174,0.1178,0.1181,0.1183,0.1185,0.1641,0.163,0.1614,0.1612,0.1627,0.1645,0.1637,0.1656,0.166,0.1621,0.1652,0.1496,0.1336,0.0998,0.0905,0.074,0.0785,0.0768,0.0785,0.076,0.0718,0.0795,0.0582,0.0583,0.0583,0.0584,0.0584,0,0.1626,0.1616,0.1609,0.1588,0.1577,0.1608,0.1625,0.1583,0.1524,0.1481,0.1402,0.12,0.0984,0.0836,0.0637,0.0538,0.0559,0.0507,0.0589,0.0612,0.0789,0.077,0.0475,0.0475,0.0475,0.0475,0.0475,0.0475,0.1621,0.1601,0.1584,0.1539,0.1526,0.1485,0.1473,0.1398,0.1335,0.1153,0.1008,0.0938,0.0855,0.0681,0.0532,0.0482,0.0504,0.036,0.04,0.0684,0.0716,0.0747,0.0738,0.0441,0.0441,0.0261,0.026,0.0259]},{"header":{"parameterUnit":"m.s-1","parameterCategory":2,"la1":30.2991,"la2":30.254,"lo1":-89.0895,"lo2":-89.0444,"dy":0.0017,"dx":0.0017,"nx":28,"ny":28,"refTime":"2023-07-30T21:00:00:Z","depth":"0","parameterNumber":3,"parameterNumberName":"V-component_of_CURRENTS"},"data":[0,0,0,0,0,0,0,0,0,0,0,0,0,0,0,0,0,0,0,0,0,0,0,0,0,0,0,0,0,0,0,0,0,0,0,0,0,0,0,0,0,0,0,0,0,0,0,0,0,0,0,0,0,0,0,0,0,0,0.0362,0.0363,0,0.0419,0.042,0.042,0.0445,0.0445,0.0445,0.0444,0.0477,0.0478,0.0479,0,0,0,0,0,0,0,0,0,0,0,0,0,0.0287,0.0289,0.0362,0.0363,0.0363,0.0419,0.042,0.042,0.0445,0.0445,0.0444,0.0444,0.0476,0.0478,0.0479,0,0,0,0,0,0,0,0,0,0,0,0,0,0.033,0.0289,0.0362,0.0381,0.0384,0.0419,0.042,0.0421,0.0445,0.0445,0.0444,0.0444,0.0476,0.0478,0.0479,0.0494,0,0,0.0484,0.0485,0,0,0,0,0,0,0,0,0.0328,0.0333,0.0378,0.038,0.0383,0.0424,0.0405,0.0444,0.0445,0.0423,0.0444,0.0444,0.0456,0.0459,0.0473,0.0496,0.0497,0.0484,0.0485,0.0486,0.0486,0,0,0,0,0,0,0,0.0325,0.0331,0.0385,0.0379,0.0381,0.0392,0.0397,0.0413,0.0441,0.0425,0.0426,0.0431,0.0458,0.0471,0.0473,0.0498,0.0484,0.0485,0.0486,0.0487,0.0545,0.0545,0,0,0,0,0,0,0.0316,0.0328,0.0384,0.0387,0.0353,0.0393,0.04,0.0412,0.0441,0.0445,0.0431,0.0432,0.0469,0.0472,0.0475,0.0499,0.0486,0.0487,0.0488,0.0544,0.0545,0.0545,0,0,0,0,0,0,0.0314,0.032,0.0381,0.0358,0.0366,0.0394,0.0408,0.0413,0.0425,0.0446,0.045,0.0438,0.0468,0.0472,0.0487,0.05,0.0488,0.0489,0.0543,0.0544,0.0545,0.0543,0,0,0,0,0,0,0.0312,0.032,0.0325,0.0357,0.0367,0.0402,0.0408,0.0414,0.0428,0.043,0.0454,0.0456,0.0469,0.0485,0.0489,0.0502,0.049,0.0543,0.0544,0.0545,0.0543,0.0544,0.0545,0,0,0,0,0,0.0309,0.0318,0.0325,0.0332,0.0374,0.0402,0.0408,0.0428,0.0429,0.0437,0.045,0.0456,0.0495,0.0486,0.0491,0.0504,0.0542,0.0543,0.0545,0.0542,0.0544,0.0545,0,0,0,0,0,0,0.0286,0.0322,0.0331,0.0349,0.0373,0.0406,0.0415,0.0427,0.0445,0.0445,0.046,0.0465,0.0485,0.0494,0.0484,0.0525,0.0521,0.0523,0.0518,0.0519,0.0521,0.0539,0.0492,0,0,0,0,0,0.0283,0.0301,0.0333,0.0347,0.0358,0.0385,0.0398,0.0413,0.0434,0.0442,0.0457,0.0475,0.0496,0.0505,0.0524,0.0542,0.0559,0.0556,0.0557,0.0558,0.0577,0.0621,0.0628,0.055,0.055,0.055,0,0,0.0276,0.0299,0.0307,0.0343,0.0362,0.0384,0.0393,0.0414,0.043,0.0442,0.0462,0.0479,0.0502,0.0526,0.0536,0.0533,0.0582,0.056,0.056,0.0579,0.0623,0.0631,0.0638,0.0551,0.0551,0.0551,0,0,0.0275,0.0292,0.0308,0.033,0.0361,0.038,0.0384,0.0417,0.0428,0.0451,0.0466,0.0494,0.0514,0.0544,0.0559,0.058,0.0588,0.0578,0.06,0.0642,0.0649,0.0656,0.0655,0.0661,0.0578,0.0578,0.0578,0,0.0265,0.0294,0.0315,0.0338,0.0356,0.0377,0.0397,0.0414,0.0446,0.0464,0.0455,0.052,0.0531,0.0582,0.0587,0.0586,0.0594,0.0589,0.0645,0.0652,0.0658,0.0656,0.0663,0.0578,0.0578,0.0578,0.0578,0,0.0279,0.0303,0.0313,0.0351,0.0369,0.0391,0.0417,0.0433,0.0445,0.0472,0.0519,0.0544,0.059,0.0591,0.0594,0.065,0.0633,0.064,0.064,0.0666,0.0661,0.0669,0.0578,0.0578,0.0578,0.0578,0,0,0.0261,0.0314,0.0319,0.0342,0.038,0.04,0.0422,0.0462,0.0492,0.0518,0.0571,0.0603,0.0629,0.0649,0.0662,0.0694,0.0729,0.0684,0.0686,0.0681,0.079,0.0745,0.0748,0.0743,0.0745,0.0747,0.0755,0,0.0268,0.0313,0.0336,0.0374,0.04,0.0425,0.0449,0.0485,0.0516,0.057,0.0611,0.0662,0.0646,0.0676,0.0707,0.0738,0.0755,0.0724,0.0769,0.0769,0.0726,0.0759,0.0756,0.0761,0.0763,0.0764,0.0765,0,0.0278,0.031,0.035,0.0402,0.0415,0.0437,0.049,0.0517,0.0587,0.0616,0.0677,0.0713,0.0776,0.0758,0.0819,0.0798,0.0795,0.0805,0.0806,0.0778,0.074,0.0743,0.0775,0.0834,0.0777,0.0776,0.0775,0,0.0267,0.032,0.0353,0.0371,0.0428,0.0448,0.0477,0.0535,0.0573,0.0657,0.0706,0.0776,0.0828,0.0851,0.0856,0.0846,0.091,0.0901,0.0852,0.0846,0.0863,0.0855,0.0963,0.0943,0.0943,0.0943,0.0943,0,0.0275,0.0303,0.0352,0.0374,0.0417,0.0451,0.0507,0.0543,0.0618,0.0692,0.0737,0.081,0.0858,0.0896,0.0885,0.0888,0.0931,0.0869,0.0861,0.0856,0.0848,0.0915,0.0935,0.0943,0.0943,0.0943,0.0943,0,0.0269,0.03,0.0342,0.0398,0.0418,0.0447,0.052,0.0566,0.0626,0.0729,0.0762,0.0851,0.0896,0.0905,0.0947,0.0925,0.0951,0.0909,0.0873,0.0861,0.0866,0.0884,0.094,0.1003,0.0872,0.0871,0.087,0,0.0276,0.0297,0.0354,0.0382,0.041,0.0461,0.0504,0.0566,0.0625,0.0758,0.0816,0.0886,0.0943,0.0957,0.0926,0.0891,0.0929,0.0864,0.0855,0.0882,0.0898,0.0887,0.0937,0.0861,0.086,0.0859,0.0859,0,0.0287,0.0302,0.0336,0.0391,0.0435,0.0492,0.056,0.0608,0.0706,0.079,0.0906,0.0958,0.0967,0.0953,0.0888,0.0862,0.0913,0.0849,0.0919,0.0938,0.0898,0.0948,0.0806,0.0854,0.0854,0.0854,0.0855,0.0855,0.0292,0.031,0.0352,0.0403,0.0457,0.0528,0.0583,0.0667,0.0764,0.0904,0.0947,0.102,0.1005,0.0918,0.0892,0.0867,0.0866,0.0868,0.0895,0.0886,0.094,0.0758,0.077,0.077,0.077,0.077,0.077,0,0.0297,0.0321,0.0367,0.0432,0.049,0.0521,0.0628,0.0698,0.082,0.0922,0.101,0.1051,0.1007,0.0977,0.0935,0.0939,0.0953,0.0946,0.0973,0.1033,0.0914,0.091,0.0904,0.0904,0.0904,0.0904,0.0904,0.0904,0.0302,0.0334,0.0355,0.0445,0.0498,0.059,0.0654,0.0767,0.0856,0.0995,0.1054,0.1103,0.1148,0.1018,0.1044,0.1053,0.1153,0.1059,0.1148,0.1096,0.1093,0.1089,0.1094,0.1127,0.1127,0.1274,0.1275,0.1276]}],[{"header":{"parameterUnit":"m.s-1","parameterCategory":2,"la1":30.2991,"la2":30.254,"lo1":-89.0895,"lo2":-89.0444,"dy":0.0017,"dx":0.0017,"nx":28,"ny":28,"refTime":"2023-07-30T21:00:00:Z","depth":"2","parameterNumber":2,"parameterNumberName":"U-component_of_CURRENTS"},"data":[0,0,0,0,0,0,0,0,0,0,0,0,0,0,0,0,0,0,0,0,0,0,0,0,0,0,0,0,0,0,0,0,0,0,0,0,0,0,0,0,0,0,0,0,0,0,0,0,0,0,0,0,0,0,0,0,0,0,0.1252,0.1252,0,0.1264,0.1264,0.1264,0.1296,0.1297,0.1298,0.1299,0.1316,0.1316,0.1316,0,0,0,0,0,0,0,0,0,0,0,0,0,0.1265,0.1264,0.1252,0.1252,0.1253,0.1264,0.1264,0.1264,0.1296,0.1297,0.1298,0.1299,0.1316,0.1316,0.1316,0,0,0,0,0,0,0,0,0,0,0,0,0,0.1264,0.1264,0.1252,0.1272,0.1274,0.1264,0.1264,0.1264,0.1296,0.1297,0.1298,0.13,0.1317,0.1316,0.1316,0.1286,0,0,0.1314,0.1314,0,0,0,0,0,0,0,0,0.1264,0.1263,0.1268,0.127,0.1273,0.1282,0.1276,0.1273,0.1295,0.1285,0.1299,0.13,0.1306,0.1306,0.1302,0.1286,0.1287,0.1314,0.1314,0.1313,0.1313,0,0,0,0,0,0,0,0.1264,0.1263,0.1254,0.1269,0.1271,0.1283,0.1284,0.1275,0.1286,0.1286,0.1289,0.1294,0.1307,0.1303,0.1303,0.1287,0.1314,0.1313,0.1313,0.1313,0.133,0.133,0,0,0,0,0,0,0.1265,0.1263,0.1254,0.1255,0.1274,0.1282,0.1283,0.1276,0.1286,0.129,0.1292,0.1295,0.1303,0.1304,0.1304,0.1335,0.1313,0.1313,0.1312,0.1329,0.133,0.1331,0,0,0,0,0,0,0.1265,0.1263,0.1254,0.1262,0.1262,0.1281,0.1272,0.1275,0.1289,0.1291,0.1295,0.1305,0.1304,0.1305,0.1315,0.1333,0.1313,0.1312,0.1328,0.1329,0.133,0.1355,0,0,0,0,0,0,0.1265,0.1263,0.126,0.1261,0.1262,0.1259,0.1271,0.1275,0.129,0.1294,0.1303,0.1305,0.1305,0.1316,0.1315,0.1332,0.1312,0.1327,0.1328,0.133,0.1353,0.1356,0.136,0,0,0,0,0,0.1265,0.126,0.126,0.1259,0.1256,0.126,0.1261,0.1277,0.1289,0.1294,0.1306,0.1306,0.1325,0.1316,0.1314,0.1332,0.1326,0.1328,0.133,0.1351,0.1356,0.1359,0,0,0,0,0,0,0.1285,0.1263,0.1263,0.1257,0.1262,0.1267,0.1275,0.1282,0.1293,0.1305,0.1306,0.1308,0.1331,0.1323,0.1313,0.1343,0.1329,0.133,0.1346,0.135,0.1353,0.135,0.1311,0,0,0,0,0,0.1281,0.1262,0.1259,0.1259,0.126,0.1267,0.1272,0.1284,0.1293,0.13,0.1309,0.1321,0.1332,0.1335,0.1344,0.1345,0.1347,0.136,0.1363,0.1366,0.1363,0.1422,0.143,0.1336,0.1336,0.1336,0,0,0.1288,0.1278,0.1267,0.126,0.1265,0.1267,0.1274,0.1288,0.1297,0.1298,0.1319,0.1334,0.1337,0.1353,0.1362,0.135,0.1383,0.1368,0.137,0.1366,0.1424,0.1434,0.1442,0.1337,0.1337,0.1337,0,0,0.1291,0.1285,0.1266,0.1263,0.127,0.1281,0.1287,0.1298,0.131,0.1319,0.1338,0.1369,0.1364,0.1387,0.1391,0.1415,0.1405,0.1414,0.142,0.1477,0.1486,0.1493,0.1461,0.1465,0.1409,0.1409,0.1409,0,0.1301,0.1282,0.1269,0.1257,0.1265,0.1287,0.129,0.1298,0.1316,0.1325,0.1332,0.1376,0.1384,0.1418,0.1424,0.1425,0.1421,0.1404,0.1483,0.1491,0.1498,0.1463,0.1468,0.141,0.141,0.141,0.141,0,0.1285,0.1276,0.1275,0.1262,0.1268,0.1281,0.129,0.1309,0.1331,0.1338,0.1381,0.1408,0.144,0.1446,0.1433,0.1489,0.1455,0.1487,0.1473,0.1509,0.1469,0.1474,0.1412,0.1412,0.1412,0.1411,0,0,0.1286,0.1264,0.1265,0.1263,0.1275,0.1281,0.1301,0.1321,0.1342,0.1369,0.1404,0.1434,0.1465,0.1473,0.1493,0.1525,0.1557,0.1516,0.1518,0.1481,0.1615,0.1401,0.1385,0.1609,0.1611,0.1612,0.1549,0,0.1285,0.1267,0.1261,0.1268,0.1266,0.1288,0.1299,0.1318,0.1351,0.1389,0.1431,0.1472,0.1471,0.1504,0.1542,0.1567,0.1577,0.1566,0.1587,0.1585,0.1392,0.1387,0.132,0.1243,0.1553,0.1554,0.1554,0,0.1272,0.1261,0.126,0.1265,0.1268,0.1283,0.1327,0.1336,0.1381,0.1406,0.1467,0.1501,0.1557,0.1567,0.162,0.1612,0.1608,0.1613,0.1613,0.141,0.1381,0.1267,0.1239,0.1562,0.1561,0.1561,0.156,0,0.1276,0.1269,0.1276,0.1273,0.1277,0.1295,0.1313,0.1346,0.1365,0.1436,0.1472,0.1542,0.1583,0.163,0.1596,0.1636,0.1613,0.1689,0.1481,0.1464,0.1405,0.1378,0.1725,0.1726,0.1726,0.1726,0.1726,0,0.1275,0.1276,0.1281,0.1275,0.1294,0.1294,0.1329,0.1356,0.1407,0.142,0.1493,0.1527,0.1606,0.159,0.1595,0.1492,0.1616,0.1458,0.1441,0.14,0.1375,0.1668,0.1662,0.1723,0.1724,0.1724,0.1725,0,0.1274,0.1271,0.1275,0.1285,0.1292,0.1306,0.1339,0.1361,0.1405,0.1441,0.1467,0.1522,0.149,0.148,0.1503,0.1448,0.1406,0.1333,0.1207,0.1175,0.1227,0.1224,0.1159,0.1151,0.1145,0.1139,0.1134,0,0.1262,0.1271,0.1287,0.129,0.1301,0.1319,0.1331,0.1368,0.1382,0.1414,0.1424,0.1409,0.1365,0.1255,0.1171,0.108,0.1189,0.0927,0.1005,0.1182,0.1174,0.1181,0.1187,0.0937,0.0931,0.0927,0.0923,0,0.1256,0.1281,0.1279,0.129,0.1307,0.1312,0.1325,0.134,0.1353,0.1369,0.1348,0.1318,0.1176,0.1037,0.0842,0.0793,0.0943,0.0818,0.1088,0.1053,0.0958,0.0954,0.0971,0.088,0.0884,0.0887,0.0889,0.0891,0.1262,0.1268,0.1278,0.1282,0.1294,0.1288,0.1274,0.1272,0.1264,0.1217,0.1228,0.1113,0.1033,0.0721,0.0614,0.05,0.0603,0.0598,0.0622,0.0649,0.0596,0.0492,0.0312,0.0313,0.0313,0.0314,0.0315,0,0.1252,0.1261,0.1267,0.1249,0.1228,0.1262,0.1247,0.12,0.1148,0.1083,0.1022,0.0822,0.0658,0.0567,0.0347,0.0251,0.0343,0.0215,0.0402,0.044,0.0476,0.0425,0.009,0.009,0.0089,0.0089,0,0,0.1252,0.1226,0.1217,0.1166,0.1171,0.114,0.1124,0.1041,0.0972,0.0847,0.0734,0.0693,0.0606,0.0417,0.0316,0.0196,0.0339,0.0153,0.0331,0.0598,0.0635,0.0676,0.0634,0,0,0,0,0]},{"header":{"parameterUnit":"m.s-1","parameterCategory":2,"la1":30.2991,"la2":30.254,"lo1":-89.0895,"lo2":-89.0444,"dy":0.0017,"dx":0.0017,"nx":28,"ny":28,"refTime":"2023-07-30T21:00:00:Z","depth":"2","parameterNumber":3,"parameterNumberName":"V-component_of_CURRENTS"},"data":[0,0,0,0,0,0,0,0,0,0,0,0,0,0,0,0,0,0,0,0,0,0,0,0,0,0,0,0,0,0,0,0,0,0,0,0,0,0,0,0,0,0,0,0,0,0,0,0,0,0,0,0,0,0,0,0,0,0,0.0268,0.0268,0,0.0321,0.0321,0.0322,0.0346,0.0346,0.0346,0.0346,0.0371,0.0372,0.0372,0,0,0,0,0,0,0,0,0,0,0,0,0,0.0195,0.0196,0.0268,0.0268,0.0269,0.0321,0.0321,0.0322,0.0346,0.0346,0.0346,0.0346,0.0371,0.0372,0.0372,0,0,0,0,0,0,0,0,0,0,0,0,0,0.0235,0.0197,0.0268,0.0288,0.029,0.032,0.0321,0.0322,0.0346,0.0346,0.0346,0.0346,0.037,0.0371,0.0372,0.038,0,0,0.0376,0.0376,0,0,0,0,0,0,0,0,0.0233,0.0238,0.0284,0.0286,0.0289,0.0327,0.0305,0.034,0.0346,0.0325,0.0346,0.0346,0.0354,0.0356,0.0366,0.0381,0.0382,0.0376,0.0376,0.0377,0.0377,0,0,0,0,0,0,0,0.023,0.0235,0.0288,0.0285,0.0288,0.0296,0.0302,0.0312,0.0338,0.0327,0.0329,0.0335,0.0355,0.0365,0.0367,0.0382,0.0376,0.0377,0.0377,0.0378,0.0422,0.0423,0,0,0,0,0,0,0.0224,0.0233,0.0287,0.029,0.026,0.0298,0.0304,0.0315,0.0339,0.0343,0.0335,0.0336,0.0364,0.0366,0.0368,0.0392,0.0377,0.0378,0.0378,0.0422,0.0422,0.0423,0,0,0,0,0,0,0.0222,0.0228,0.0285,0.0262,0.027,0.0299,0.0311,0.0316,0.0329,0.0345,0.0349,0.0343,0.0364,0.0367,0.038,0.0392,0.0378,0.0379,0.0421,0.0422,0.0423,0.0429,0,0,0,0,0,0,0.022,0.0227,0.0232,0.0262,0.0271,0.0305,0.0311,0.0317,0.0333,0.0335,0.0353,0.0356,0.0364,0.0379,0.0381,0.0393,0.038,0.042,0.0421,0.0422,0.0429,0.043,0.0432,0,0,0,0,0,0.0217,0.0226,0.0232,0.0238,0.0277,0.0305,0.0311,0.0331,0.0333,0.0341,0.0353,0.0355,0.0388,0.038,0.0383,0.0395,0.042,0.0421,0.0422,0.0428,0.043,0.0432,0,0,0,0,0,0,0.0198,0.023,0.0237,0.0255,0.0278,0.0309,0.0319,0.0331,0.0348,0.0349,0.036,0.0364,0.0382,0.0387,0.0378,0.0412,0.0405,0.0407,0.0408,0.0411,0.0412,0.0427,0.0381,0,0,0,0,0,0.0195,0.021,0.024,0.0255,0.0265,0.0291,0.0304,0.0319,0.0338,0.0346,0.036,0.0374,0.039,0.0397,0.0411,0.0426,0.0441,0.0438,0.0439,0.0441,0.0455,0.0496,0.0504,0.0427,0.0427,0.0427,0,0,0.0189,0.0211,0.0218,0.0251,0.027,0.029,0.0299,0.0321,0.0338,0.0345,0.0368,0.038,0.0395,0.0416,0.0424,0.0421,0.0465,0.0442,0.0443,0.0457,0.0499,0.0506,0.0513,0.0428,0.0428,0.0428,0,0,0.0193,0.0208,0.0223,0.0242,0.0273,0.029,0.0296,0.0328,0.034,0.0361,0.0373,0.0398,0.0412,0.0437,0.0448,0.0468,0.0473,0.0464,0.0486,0.0526,0.0533,0.0539,0.0543,0.055,0.0466,0.0466,0.0466,0,0.0184,0.0212,0.023,0.0252,0.027,0.0289,0.031,0.0326,0.0358,0.0375,0.0368,0.0422,0.0429,0.0473,0.0476,0.0475,0.0483,0.0474,0.0529,0.0536,0.0542,0.0545,0.0552,0.0466,0.0466,0.0466,0.0466,0,0.0202,0.0224,0.0235,0.0268,0.0287,0.0309,0.0333,0.0352,0.0364,0.0387,0.0429,0.0449,0.0489,0.0488,0.0485,0.0536,0.0521,0.0525,0.0523,0.055,0.0551,0.0559,0.0467,0.0467,0.0467,0.0466,0,0,0.0188,0.0237,0.0242,0.0264,0.03,0.032,0.0343,0.0381,0.041,0.0434,0.0484,0.0506,0.0528,0.0543,0.0553,0.058,0.0616,0.0567,0.0569,0.0571,0.0678,0.0629,0.0632,0.0628,0.063,0.0631,0.0651,0,0.0198,0.0242,0.0263,0.0301,0.0325,0.035,0.0373,0.0407,0.0436,0.0487,0.052,0.0566,0.0545,0.0573,0.0598,0.0623,0.064,0.0609,0.0653,0.0654,0.0608,0.0641,0.0589,0.06,0.0659,0.066,0.0661,0,0.021,0.0241,0.028,0.033,0.0342,0.0365,0.0418,0.0444,0.0507,0.0532,0.0588,0.062,0.0675,0.0654,0.0706,0.0685,0.0683,0.0689,0.069,0.0653,0.062,0.0588,0.0612,0.0674,0.0673,0.0672,0.0671,0,0.0203,0.0254,0.0288,0.0305,0.0359,0.0381,0.0409,0.0461,0.0498,0.0576,0.0624,0.0683,0.0733,0.075,0.0747,0.0738,0.0792,0.0786,0.0735,0.073,0.0701,0.069,0.0824,0.0824,0.0824,0.0824,0.0824,0,0.0213,0.024,0.0289,0.0311,0.0354,0.0386,0.0439,0.0474,0.0545,0.0609,0.0655,0.0721,0.0762,0.0794,0.0778,0.0773,0.0817,0.075,0.0745,0.0697,0.0686,0.0767,0.076,0.0824,0.0824,0.0824,0.0824,0,0.0206,0.0236,0.0279,0.0335,0.0355,0.0386,0.0456,0.05,0.0557,0.0651,0.0684,0.0767,0.0803,0.0808,0.084,0.0814,0.0811,0.079,0.0708,0.0693,0.0712,0.0706,0.0761,0.0759,0.0758,0.0757,0.0756,0,0.0209,0.0232,0.0293,0.0322,0.0351,0.0401,0.0442,0.0503,0.056,0.0677,0.0733,0.0795,0.0838,0.0844,0.0801,0.0763,0.0779,0.0696,0.0678,0.0723,0.0713,0.0707,0.0702,0.0631,0.0629,0.0628,0.0627,0,0.0217,0.0237,0.0272,0.0331,0.0377,0.0433,0.0501,0.0549,0.0635,0.0716,0.0818,0.0857,0.0847,0.0797,0.0725,0.0693,0.0699,0.0665,0.0766,0.0647,0.0601,0.059,0.059,0.0614,0.0615,0.0616,0.0617,0.0618,0.0221,0.0242,0.029,0.0345,0.04,0.0471,0.0525,0.0606,0.0699,0.0817,0.0847,0.0879,0.082,0.0704,0.0645,0.0581,0.0612,0.0587,0.0592,0.0598,0.0572,0.0526,0.0518,0.0519,0.0519,0.052,0.052,0,0.0228,0.0257,0.0305,0.0375,0.0434,0.0468,0.0574,0.0637,0.0753,0.0811,0.088,0.0791,0.0714,0.0642,0.0521,0.0474,0.0478,0.046,0.0471,0.0482,0.0493,0.0462,0.0379,0.0378,0.0378,0.0378,0,0,0.0234,0.027,0.0294,0.0389,0.0445,0.0539,0.0603,0.07,0.0762,0.082,0.0812,0.0806,0.0707,0.0598,0.0516,0.0445,0.0484,0.0431,0.0543,0.0575,0.0586,0.0555,0.0519,0,0,0,0,0]}],[{"header":{"parameterUnit":"m.s-1","parameterCategory":2,"la1":30.2991,"la2":30.254,"lo1":-89.0895,"lo2":-89.0444,"dy":0.0017,"dx":0.0017,"nx":28,"ny":28,"refTime":"2023-07-30T21:00:00:Z","depth":"4","parameterNumber":2,"parameterNumberName":"U-component_of_CURRENTS"},"data":[0,0,0,0,0,0,0,0,0,0,0,0,0,0,0,0,0,0,0,0,0,0,0,0,0,0,0,0,0,0,0,0,0,0,0,0,0,0,0,0,0,0,0,0,0,0,0,0,0,0,0,0,0,0,0,0,0,0,0.0293,0.0293,0,0.0287,0.0287,0.0287,0.0305,0.0305,0.0306,0.0307,0.0319,0.0318,0.0318,0,0,0,0,0,0,0,0,0,0,0,0,0,0.0344,0.0343,0.0293,0.0293,0.0293,0.0287,0.0287,0.0287,0.0305,0.0305,0.0306,0.0307,0.0319,0.0319,0.0318,0,0,0,0,0,0,0,0,0,0,0,0,0,0.0327,0.0342,0.0293,0.0302,0.0303,0.0287,0.0287,0.0287,0.0304,0.0305,0.0306,0.0307,0.0319,0.0319,0.0318,0.0296,0,0,0.0317,0.0317,0,0,0,0,0,0,0,0,0.0328,0.0325,0.03,0.0301,0.0302,0.0299,0.031,0.0291,0.0304,0.0302,0.0307,0.0308,0.0314,0.0314,0.0309,0.0296,0.0297,0.0317,0.0317,0.0316,0.0316,0,0,0,0,0,0,0,0.0329,0.0326,0.0289,0.03,0.0302,0.0315,0.0314,0.0306,0.0302,0.0303,0.0304,0.0305,0.0314,0.0309,0.0309,0.0297,0.0317,0.0316,0.0316,0.0316,0.0347,0.0348,0,0,0,0,0,0,0.033,0.0326,0.0289,0.0289,0.0319,0.0314,0.0312,0.0298,0.0302,0.0304,0.0305,0.0306,0.0309,0.031,0.031,0.0325,0.0316,0.0316,0.0316,0.0346,0.0347,0.0348,0,0,0,0,0,0,0.033,0.0326,0.029,0.031,0.0307,0.0312,0.0296,0.0297,0.0317,0.0303,0.0305,0.0326,0.031,0.031,0.0324,0.0324,0.0316,0.0315,0.0345,0.0346,0.0348,0.0329,0,0,0,0,0,0,0.0332,0.0326,0.0329,0.0309,0.0305,0.0291,0.0295,0.0297,0.0315,0.0318,0.0322,0.0322,0.0311,0.0325,0.0324,0.0323,0.0315,0.0343,0.0345,0.0347,0.0329,0.033,0.0331,0,0,0,0,0,0.0333,0.0325,0.0329,0.0326,0.0305,0.0292,0.0291,0.0298,0.0315,0.032,0.033,0.0323,0.0338,0.0325,0.0324,0.0323,0.0342,0.0345,0.0347,0.0328,0.033,0.0331,0,0,0,0,0,0,0.0344,0.0326,0.0329,0.0316,0.0312,0.0295,0.0304,0.0311,0.0322,0.0334,0.0329,0.033,0.0337,0.0344,0.0331,0.0343,0.0342,0.0344,0.0328,0.033,0.0331,0.0369,0.0315,0,0,0,0,0,0.0348,0.0342,0.0327,0.032,0.032,0.0319,0.0322,0.0325,0.0326,0.0333,0.0336,0.0346,0.034,0.0349,0.0343,0.0352,0.037,0.0357,0.0358,0.0359,0.0392,0.0428,0.0435,0.0356,0.0356,0.0356,0,0,0.0352,0.0341,0.034,0.0324,0.0324,0.0314,0.0324,0.0328,0.0327,0.0331,0.0343,0.0343,0.0343,0.0343,0.035,0.0354,0.0382,0.0362,0.0362,0.0396,0.0431,0.0439,0.0445,0.0358,0.0358,0.0357,0,0,0.0346,0.0346,0.034,0.0336,0.0337,0.0329,0.0337,0.0334,0.0344,0.035,0.035,0.0371,0.0363,0.0368,0.0367,0.0384,0.038,0.0375,0.0418,0.045,0.0457,0.0463,0.0452,0.0458,0.0385,0.0385,0.0385,0,0.0348,0.0338,0.0338,0.0329,0.0327,0.0338,0.0329,0.0333,0.0337,0.0352,0.0358,0.0381,0.0379,0.039,0.0398,0.0386,0.0393,0.04,0.0451,0.0458,0.0465,0.0453,0.0459,0.0385,0.0385,0.0385,0.0385,0,0.034,0.0335,0.0332,0.0321,0.0316,0.0314,0.0311,0.0327,0.0346,0.0354,0.0384,0.0393,0.0422,0.0411,0.041,0.0453,0.0434,0.0435,0.0442,0.0472,0.0456,0.0463,0.0384,0.0384,0.0384,0.0384,0,0,0.0334,0.0325,0.0329,0.0321,0.0315,0.0304,0.0312,0.032,0.0344,0.0368,0.0407,0.0415,0.0453,0.0461,0.0463,0.0501,0.0533,0.05,0.0502,0.048,0.0578,0.0443,0.0437,0.0541,0.0543,0.0545,0.053,0,0.033,0.0306,0.0308,0.0293,0.0279,0.0292,0.0295,0.0309,0.0336,0.0379,0.0422,0.0453,0.0458,0.0484,0.0524,0.0527,0.0559,0.0536,0.0563,0.0563,0.0433,0.0445,0.0552,0.0536,0.0537,0.0539,0.0539,0,0.0326,0.0309,0.0293,0.0276,0.0275,0.0278,0.03,0.0302,0.0361,0.0393,0.0456,0.0489,0.0548,0.056,0.0606,0.0588,0.0604,0.0609,0.0608,0.0507,0.0444,0.0514,0.0552,0.0551,0.055,0.055,0.0549,0,0.0319,0.0297,0.0285,0.0281,0.0269,0.0286,0.0288,0.0323,0.0337,0.0425,0.046,0.0528,0.0572,0.0612,0.0613,0.0626,0.0649,0.066,0.0551,0.054,0.0673,0.0667,0.0725,0.0725,0.0725,0.0725,0.0726,0,0.0303,0.0292,0.0292,0.0292,0.0294,0.0284,0.0309,0.0337,0.0381,0.0401,0.0481,0.0517,0.0598,0.061,0.0622,0.0576,0.0651,0.0568,0.0539,0.0658,0.0651,0.0675,0.0669,0.0725,0.0725,0.0725,0.0725,0,0.0284,0.0286,0.0277,0.0285,0.0297,0.0298,0.0314,0.0316,0.0374,0.041,0.0443,0.0522,0.0536,0.0554,0.0599,0.0562,0.0545,0.0517,0.0604,0.0578,0.0418,0.0412,0.0417,0.0412,0.0409,0.0405,0.0403,0,0.0267,0.0265,0.0286,0.0282,0.0294,0.03,0.0296,0.0329,0.0325,0.0393,0.04,0.0454,0.0491,0.0443,0.0469,0.0441,0.0444,0.0416,0.0474,0.042,0.0393,0.0393,0.0392,0.0396,0.0395,0.0394,0.0393,0,0.0241,0.0264,0.0259,0.0269,0.0273,0.0253,0.0254,0.0254,0.0278,0.0333,0.0366,0.0384,0.0386,0.0402,0.0359,0.0351,0.0422,0.0376,0.0386,0.0441,0.0395,0.0372,0.0375,0.038,0.0382,0.0383,0.0384,0,0.0235,0.0222,0.0238,0.0233,0.0237,0.0206,0.0207,0.0197,0.0213,0.0281,0.0288,0.0341,0.0398,0.0352,0.0313,0.0274,0.0294,0.0287,0.0303,0.0318,0.0283,0.021,0.0121,0,0,0,0,0,0.0219,0.019,0.0185,0.0169,0.0169,0.018,0.017,0.0164,0.0199,0.0205,0.0249,0.0253,0.0241,0.0265,0.0207,0.0232,0.0267,0.0155,0.0261,0.0305,0.032,0.0284,0,0,0,0,0,0,0.0197,0.0191,0.0173,0.0134,0.0113,0.0101,0.0103,0.0113,0.012,0.0172,0.0179,0.0211,0.0211,0.0285,0.0206,0.0198,0.0245,0.0171,0.0168,0.0296,0.031,0.0323,0.029,0,0,0,0,0]},{"header":{"parameterUnit":"m.s-1","parameterCategory":2,"la1":30.2991,"la2":30.254,"lo1":-89.0895,"lo2":-89.0444,"dy":0.0017,"dx":0.0017,"nx":28,"ny":28,"refTime":"2023-07-30T21:00:00:Z","depth":"4","parameterNumber":3,"parameterNumberName":"V-component_of_CURRENTS"},"data":[0,0,0,0,0,0,0,0,0,0,0,0,0,0,0,0,0,0,0,0,0,0,0,0,0,0,0,0,0,0,0,0,0,0,0,0,0,0,0,0,0,0,0,0,0,0,0,0,0,0,0,0,0,0,0,0,0,0,0.0145,0.0146,0,0.0182,0.0183,0.0183,0.0203,0.0203,0.0203,0.0202,0.0226,0.0227,0.0227,0,0,0,0,0,0,0,0,0,0,0,0,0,0.0096,0.0097,0.0145,0.0146,0.0146,0.0182,0.0183,0.0183,0.0203,0.0203,0.0203,0.0202,0.0226,0.0226,0.0227,0,0,0,0,0,0,0,0,0,0,0,0,0,0.0125,0.0097,0.0145,0.0159,0.0161,0.0182,0.0183,0.0184,0.0203,0.0203,0.0203,0.0202,0.0225,0.0226,0.0227,0.0236,0,0,0.0231,0.0231,0,0,0,0,0,0,0,0,0.0123,0.0127,0.0157,0.0158,0.016,0.0187,0.0174,0.02,0.0203,0.0188,0.0202,0.0202,0.0211,0.0213,0.0222,0.0237,0.0238,0.0231,0.0231,0.0232,0.0232,0,0,0,0,0,0,0,0.0121,0.0125,0.0161,0.0157,0.0159,0.0165,0.0169,0.0179,0.02,0.0189,0.019,0.0193,0.0212,0.0221,0.0223,0.0239,0.0231,0.0232,0.0232,0.0233,0.0271,0.0271,0,0,0,0,0,0,0.0114,0.0123,0.016,0.0162,0.0139,0.0166,0.017,0.0179,0.0201,0.0203,0.0193,0.0194,0.0219,0.0222,0.0224,0.0253,0.0232,0.0233,0.0233,0.027,0.0271,0.0271,0,0,0,0,0,0,0.0113,0.0117,0.0158,0.0142,0.0148,0.0167,0.0176,0.018,0.0193,0.0203,0.0206,0.0202,0.0219,0.0222,0.0237,0.0253,0.0233,0.0234,0.027,0.027,0.0271,0.0301,0,0,0,0,0,0,0.0112,0.0117,0.0123,0.0142,0.0148,0.0176,0.0177,0.0181,0.0194,0.0195,0.0212,0.0214,0.022,0.0236,0.0238,0.0255,0.0235,0.0269,0.027,0.0271,0.0299,0.0302,0.0305,0,0,0,0,0,0.011,0.0119,0.0123,0.0127,0.0155,0.0176,0.0181,0.0194,0.0194,0.0204,0.0213,0.0214,0.0242,0.0237,0.024,0.0257,0.0269,0.027,0.0271,0.0298,0.0302,0.0305,0,0,0,0,0,0,0.01,0.0122,0.0127,0.0142,0.0159,0.0179,0.0189,0.0196,0.0212,0.0213,0.022,0.0223,0.0243,0.0242,0.0237,0.0268,0.0255,0.0256,0.0275,0.0278,0.0281,0.0282,0.0236,0,0,0,0,0,0.01,0.0115,0.0133,0.0147,0.0155,0.0172,0.0182,0.0192,0.0207,0.0214,0.0225,0.0235,0.0248,0.0257,0.0267,0.0285,0.0277,0.0296,0.0299,0.0301,0.0304,0.0306,0.0309,0.0274,0.0274,0.0274,0,0,0.0098,0.0114,0.012,0.0146,0.016,0.0179,0.0179,0.0197,0.0216,0.0213,0.024,0.0245,0.0254,0.0277,0.0285,0.0279,0.0306,0.0302,0.0305,0.0306,0.0307,0.0311,0.0314,0.0274,0.0274,0.0274,0,0,0.0106,0.0117,0.0133,0.015,0.0173,0.0185,0.019,0.0213,0.0226,0.0248,0.0252,0.0266,0.0286,0.0299,0.0307,0.0329,0.032,0.0332,0.0351,0.0353,0.0356,0.0359,0.0349,0.0351,0.0334,0.0335,0.0335,0,0.0103,0.0128,0.014,0.0162,0.0178,0.0188,0.021,0.0226,0.0251,0.0263,0.0259,0.0293,0.0298,0.0329,0.0337,0.0337,0.0331,0.0339,0.0357,0.036,0.0362,0.0351,0.0353,0.0336,0.0336,0.0336,0.0336,0,0.0126,0.0146,0.0157,0.0189,0.0206,0.0228,0.0249,0.0267,0.0277,0.0291,0.0321,0.0329,0.035,0.0354,0.0353,0.0377,0.0364,0.036,0.035,0.0367,0.0355,0.0356,0.0338,0.0338,0.0337,0.0337,0,0,0.0122,0.0165,0.017,0.0191,0.0225,0.0242,0.0271,0.0302,0.0324,0.0341,0.037,0.0389,0.0391,0.0399,0.0402,0.0404,0.041,0.0389,0.0389,0.0381,0.0408,0.0372,0.0369,0.041,0.041,0.0411,0.0392,0,0.0138,0.0179,0.0199,0.0239,0.026,0.0283,0.0311,0.0338,0.0357,0.0386,0.0397,0.0423,0.041,0.0424,0.0425,0.0416,0.0415,0.0415,0.0391,0.039,0.0357,0.037,0.0412,0.0392,0.0392,0.0392,0.0393,0,0.0156,0.0183,0.0221,0.0268,0.028,0.0305,0.035,0.0378,0.0414,0.0429,0.0452,0.0461,0.0478,0.046,0.0452,0.0453,0.0434,0.042,0.0418,0.0375,0.0356,0.0372,0.0394,0.0394,0.0394,0.0393,0.0393,0,0.0148,0.0199,0.023,0.0247,0.0299,0.0323,0.0351,0.0389,0.042,0.0458,0.0477,0.0495,0.0509,0.0491,0.0459,0.046,0.0436,0.0435,0.0383,0.038,0.0405,0.0402,0.0427,0.0427,0.0427,0.0427,0.0427,0,0.0159,0.0184,0.023,0.025,0.0295,0.0326,0.0374,0.0403,0.0448,0.0483,0.0499,0.052,0.0518,0.0505,0.047,0.0423,0.0444,0.0387,0.0376,0.0417,0.0416,0.0405,0.0403,0.0426,0.0427,0.0427,0.0427,0,0.0145,0.0175,0.0214,0.027,0.0293,0.0322,0.0393,0.0428,0.0461,0.0507,0.0522,0.0547,0.052,0.0496,0.0464,0.0436,0.0393,0.037,0.0406,0.0397,0.0334,0.0334,0.0321,0.032,0.0319,0.0318,0.0317,0,0.0144,0.0162,0.0223,0.0252,0.0281,0.0334,0.0376,0.0431,0.0468,0.0514,0.0535,0.0533,0.0533,0.0456,0.0429,0.036,0.0348,0.0337,0.0346,0.0334,0.0325,0.0326,0.0327,0.0315,0.0315,0.0315,0.0314,0,0.014,0.0158,0.0192,0.0251,0.03,0.0358,0.0419,0.0442,0.0499,0.0529,0.0538,0.0516,0.0483,0.0438,0.0384,0.0336,0.0353,0.0324,0.0327,0.0335,0.0327,0.0319,0.0321,0.031,0.0311,0.0311,0.0311,0,0.0137,0.0155,0.0201,0.0257,0.0318,0.0373,0.0401,0.0447,0.0486,0.0529,0.0525,0.0496,0.0496,0.0424,0.0371,0.0321,0.0314,0.0313,0.0316,0.032,0.0323,0.0312,0.0282,0,0,0,0,0,0.0137,0.0165,0.021,0.0271,0.033,0.0373,0.0436,0.0459,0.0502,0.0503,0.0516,0.0477,0.0413,0.0393,0.0333,0.0346,0.0304,0.0276,0.0304,0.0288,0.0293,0.0292,0,0,0,0,0,0,0.0139,0.0177,0.0206,0.028,0.0324,0.0394,0.0435,0.0458,0.0461,0.0486,0.0445,0.0459,0.0387,0.0433,0.0327,0.0317,0.0327,0.0255,0.0253,0.0285,0.029,0.0293,0.0295,0,0,0,0,0]}]]